This is the latest recevied weather packets stored in our database for station/object UR7D-12. If no packets are shown the sender has not sent any weather packets the latest 10 day(s).
| Time | Temp. | Humidity | Pressure | Rain* | Wind** | Luminosity | Snow |
|---|---|---|---|---|---|---|---|
| 1777814558 | 20° C | 42% | 993.3 hPa | 0 mm | - | - | - |
| 1777813957 | 20° C | 40% | 993.7 hPa | 0 mm | - | - | - |
| 1777813657 | 20° C | 39% | 993.8 hPa | 0 mm | - | - | - |
| 1777813357 | 20° C | 40% | 993.9 hPa | 0 mm | - | - | - |
| 1777813056 | 19.44° C | 42% | 993.8 hPa | 0 mm | - | - | - |
| 1777812756 | 19.44° C | 40% | 993.9 hPa | 0 mm | - | - | - |
| 1777812456 | 19.44° C | 43% | 994 hPa | 0 mm | - | - | - |
| 1777811855 | 18.89° C | 40% | 994.3 hPa | 0 mm | - | - | - |
| 1777811555 | 18.89° C | 41% | 994.2 hPa | 0 mm | - | - | - |
| 1777809453 | 18.33° C | 41% | 994.6 hPa | 0 mm | - | - | - |
| 1777809153 | 18.33° C | 41% | 994.6 hPa | 0 mm | - | - | - |
| 1777808852 | 18.33° C | 40% | 994.6 hPa | 0 mm | - | - | - |
| 1777808552 | 18.33° C | 41% | 994.7 hPa | 0 mm | - | - | - |
| 1777808252 | 18.33° C | 42% | 994.6 hPa | 0 mm | - | - | - |
| 1777807650 | 17.78° C | 42% | 994.9 hPa | 0 mm | - | - | - |
| 1777806451 | 17.22° C | 43% | 995.1 hPa | 0 mm | - | - | - |
| 1777806151 | 17.22° C | 43% | 995.2 hPa | 0 mm | - | - | - |
| 1777805848 | 17.22° C | 44% | 995.3 hPa | 0 mm | - | - | - |
| 1777805548 | 17.22° C | 45% | 995.2 hPa | 0 mm | - | - | - |
| 1777804649 | 17.22° C | 43% | 995.4 hPa | 0 mm | - | - | - |
| 1777804350 | 17.22° C | 45% | 995.4 hPa | 0 mm | - | - | - |
| 1777804047 | 16.67° C | 44% | 995.4 hPa | 0 mm | - | - | - |
| 1777802848 | 16.11° C | 47% | 995.9 hPa | 0 mm | - | - | - |
| 1777801944 | 16.11° C | 47% | 996 hPa | 0 mm | - | - | - |
| 1777801347 | 15.56° C | 46% | 996.2 hPa | 0 mm | - | - | - |
* Rain latest hour (hover to see other rain measurements)
** Current wind speed in m/s (hover to see current wind gust speed)